Tracking 29892 objects as of 21-Nov-2024
HD Live streaming from Space Station
objects crossing your sky now

PEGASUS DEB

Track PEGASUS DEB now!
10-day predictions


NORAD ID: 24594
Int'l Code: 1994-029YW
Perigee: 542.0 km
Apogee: 1,228.4 km
Inclination: 81.5 °
Period: 102.5 minutes
Semi major axis: 7256 km
RCS: 0.0131 m2 (small)
Launch date: May 19, 1994
Source: United States (US)
Launch site: AIR FORCE WESTERN TEST RANGE (AFWTR)

Note: This is SATELLITE DEBRIS
Your satellite tracking list
Your tracking list is empty




NASA's NSSDC Master Catalog

Two Line Element Set (TLE):
1 24594U 94029YW  24326.04714233  .00008890  00000-0  20082-2 0  9998
2 24594  81.4658 182.9261 0472969 159.3558 202.7456 14.04550383427181
Source of the keplerian elements: AFSPC